Dato Tsitaishvili

Olheiro-Chefe - Chikhura
6 Ago 2028
Domingo
Processo

Personalidade

Adaptabilidade (6) Ambição (1) Controvérsia (3) Lealdade (7) Pressão (19) Profissionalismo (3) Espírito Esportivo (8) Temperamento (7)

Perfil

Estilo de Treinamento Democrático
Licença Continental C
Determinação 4
Gestão de Pessoas 9
Motivação 6
Disciplina 8
Satisfação no Trabalho
100%
Fadiga
0%
Função Olheiro-Chefe
Salário 30.9K p/s
Contrato 14.03.2029

Desempenho

Comportamento Bom
Eficácia do Treinamento
31%
Desenvolvimento do Jogador
20%
Prevenção de Lesões
45%
Implementação Tática
20%

Eventos Recentes

Participou de uma reunião de recrutamento 14d atrás
Participou de uma reunião de recrutamento 21d atrás
Participou de uma reunião de recrutamento 28d atrás
Participou de uma reunião de recrutamento 35d atrás
Avaliou um jogador 35d atrás
Avaliou um jogador 35d atrás
Avaliou um jogador 35d atrás
Apresentou um dossiê à direção 35d atrás

Monitorando agora

179
Jogador Clube Status Habilidade Confiança Observado Última observação Último voto
Marcus Browne AFC Wimbledon Ativo 105 / 101 40% 4 30.06.2028 -
Bashar Musa US Forces Armees Ativo 93 / 95 40% 1 30.06.2028 -
Pol Valentín Cambridge United Ativo 127 / 105 40% 1 28.06.2028 -
Jacob Bedeau Notts County Ativo 106 / 98 40% 1 28.06.2028 -
Matthew Craig Newport County Ativo 115 / 123 40% 1 28.06.2028 -
Mattia Tordini Crotone Ativo 102 / 94 40% 5 27.06.2028 -
Simone Rabbi Ravenna Ativo 111 / 107 40% 3 27.06.2028 -
Nicola Dalmonte Trento Ativo 113 / 117 40% 2 27.06.2028 -
Millar Matthews-Lewis Tranmere Rovers Ativo 100 / 111 40% 3 23.06.2028 -
Igor Tyjon Barrow AFC Ativo 107 / 129 40% 3 20.06.2028 -
Guillaume Furrer Lecco Ativo 115 / 114 40% 2 20.06.2028 -
Ismail Achik Salernitana Ativo 106 / 121 40% 2 20.06.2028 -
Louis Flower Crawley Town Ativo 90 / 80 40% 2 19.06.2028 -
Anthony Scully Shrewsbury Town Ativo 91 / 88 40% 2 19.06.2028 -
Ahmed Abdullahi Northampton Town Ativo 111 / 104 40% 1 19.06.2028 -
Gianluca Contini Siracusa Ativo 111 / 110 40% 1 18.06.2028 -
Admir Bristrić Cambridge United Ativo 113 / 115 40% 1 18.06.2028 -
Jalen Blesa Oliveirense Ativo 114 / 125 40% 1 18.06.2028 -
Alassana Jatta Notts County Ativo 124 / 112 40% 4 17.06.2028 -
Kylian Kouassi Colchester United Ativo 110 / 95 40% 2 17.06.2028 -
Jack Vale Sorrento Ativo 93 / 89 40% 2 17.06.2028 -
Joshua Ajala Walsall Ativo 111 / 115 40% 4 16.06.2028 -
George Lloyd Shrewsbury Town Ativo 99 / 95 40% 3 16.06.2028 -
David Okereke Cremonese Ativo 140 / 117 40% 5 15.06.2028 -
André Shinyashiki Plymouth Argyle Ativo 115 / 96 40% 1 15.06.2028 -
Kyle Wootton Stockport County Ativo 124 / 144 40% 4 14.06.2028 -
Paolo Yrizar Chernomorets Ativo 102 / 99 40% 8 13.06.2028 -
Ilja Safronov Rotor Ativo 106 / 104 40% 3 13.06.2028 -
Tyrese Shade Burton Albion Ativo 99 / 96 40% 1 10.06.2028 -
Aaron Drinan Swindon Town Ativo 96 / 85 40% 2 09.06.2028 -
Marco Da Graca Novara Ativo 117 / 126 40% 1 09.06.2028 -
Alexandr Saplinov Volga Ativo 98 / 99 40% 2 07.06.2028 -
Emanuele Scipioni Monopoli Ativo 107 / 93 40% 3 07.06.2028 -
David Simiyu Guria Rejeitado 66 / 53 65% 1 07.06.2028 Rejeitar
Calum Kavanagh Oldham Athletic Ativo 95 / 125 40% 2 06.06.2028 -
Fletcher Boyd Accrington Stanley Ativo 94 / 114 40% 1 06.06.2028 -
Matty Stevens AFC Wimbledon Ativo 117 / 123 40% 3 05.06.2028 -
Kevin Piscopo Juve Stabia Rejeitado 127 / 125 40% 3 05.06.2028 Rejeitar
Gennaro Tutino Sampdoria Ativo 115 / 145 40% 5 03.06.2028 -
Giuseppe Panico Foggia Ativo 119 / 108 40% 2 02.06.2028 -
Bachana Ananidze Dinamo Batumi Rejeitado 68 / 77 65% 1 02.06.2028 Rejeitar
Nika Dumbadze Dinamo Batumi Rejeitado 85 / 78 65% 1 01.06.2028 Rejeitar
Facundo Lescano Salernitana Ativo 108 / 133 40% 1 01.06.2028 -
Lamin Sillah Exeter City Ativo 89 / 85 40% 1 01.06.2028 -
Simone Mazzocchi Cosenza Ativo 115 / 102 40% 2 30.05.2028 -
Nicolò Bruschi Ternana Ativo 115 / 121 40% 1 30.05.2028 -
Layton Stewart Barnet Ativo 111 / 128 40% 3 26.05.2028 -
Louis Appéré Cambridge United Ativo 109 / 86 40% 5 23.05.2028 -
Kimarni Smith Newport County Ativo 104 / 88 40% 1 23.05.2028 -
Alan Cisnero Exeter City Ativo 111 / 107 40% 1 23.05.2028 -
Hakeeb Adelakun Doncaster Rovers Ativo 108 / 125 40% 3 22.05.2028 -
Kevin Martins Monza Ativo 107 / 122 40% 1 22.05.2028 -
Mason Bennett Harrogate Town Ativo 103 / 81 40% 3 21.05.2028 -
Gianluca D'Auria Potenza Ativo 113 / 87 40% 2 21.05.2028 -
Salvatore Longo Monopoli Ativo 113 / 87 40% 1 21.05.2028 -
Marcus Dinanga Bromley Ativo 85 / 95 40% 2 19.05.2028 -
Miloš Bočić Altamura Ativo 96 / 117 40% 2 19.05.2028 -
Emanuele Schimmenti Potenza Ativo 126 / 124 40% 2 18.05.2028 -
Luca Vido Union Brescia Ativo 112 / 92 40% 2 18.05.2028 -
Francesco Petito Dolomiti Bellunesi Ativo 117 / 102 40% 2 17.05.2028 -
Giacomo Zecca Torres Ativo 113 / 114 40% 2 16.05.2028 -
Alessandro Ghillani Lumezzane Ativo 107 / 122 40% 1 16.05.2028 -
Mikhail Ignatov Sochi Rejeitado 122 / 118 40% 2 14.05.2028 Mais informações
Sam Nombe Milton Keynes Dons Ativo 110 / 111 40% 1 10.05.2028 -
Vladislav Yakovlev Volga Ativo 103 / 87 40% 1 10.05.2028 -
Marco Tumminello Benevento Rejeitado 125 / 134 40% 2 08.05.2028 Mais informações
King Udoh Pro Patria Ativo 111 / 114 40% 1 08.05.2028 -
Marco Zunno Crotone Ativo 93 / 103 40% 2 06.05.2028 -
Andrew Dallas Sambenedettese Ativo 98 / 77 40% 1 06.05.2028 -
Will Davies Fleetwood Town Ativo 105 / 82 40% 1 06.05.2028 -
Víctor Guzmán Sporting CP Ativo 91 / 116 40% 1 03.05.2028 -
Ryan Graydon Salford City Ativo 118 / 120 40% 3 02.05.2028 -
Matteo Cortesi Arezzo Ativo 98 / 128 40% 1 29.04.2028 -
Leonardo Candellone Juve Stabia Ativo 118 / 141 40% 1 28.04.2028 -
Ichem Ferrah Livorno Ativo 119 / 138 40% 1 24.04.2028 -
Miro Arsenal Tula Ativo 122 / 108 40% 2 23.04.2028 -
Aaron Collins Milton Keynes Dons Ativo 132 / 122 40% 1 23.04.2028 -
Danny Butterworth Accrington Stanley Ativo 95 / 89 40% 1 23.04.2028 -
Tyler Walton Bromley Ativo 104 / 110 40% 1 19.04.2028 -
Kyrell Lisbie Peterborough United Ativo 118 / 94 40% 1 18.04.2028 -
Rayan Kolli Queens Park Rangers Ativo 126 / 130 40% 2 17.04.2028 -
Timur Suleimanov Nizhniy Novgorod Ativo 127 / 116 40% 2 15.04.2028 -
Seb Palmer-Houlden Gillingham Ativo 110 / 114 40% 1 15.04.2028 -
Mattia Iori Lumezzane Ativo 117 / 122 40% 1 14.04.2028 -
Vladislav Sarveli Nizhniy Novgorod Ativo 109 / 109 40% 1 09.04.2028 -
Matija Popović Fakel Ativo 112 / 122 40% 1 04.04.2028 -
Augustine Nwaorisa Enyimba Ativo 80 / 112 40% 2 05.07.2027 -
Riley Owen Stevenage Ativo 105 / 97 40% 2 27.05.2027 -
Ilja Berkovskiy Torpedo Moscow Ativo 96 / 109 40% 2 25.05.2027 -
Ekain Orobengoa Real Sociedad Ativo 92 / 84 40% 2 23.05.2027 -
Leo Goglichidze Rodina Ativo 122 / 118 40% 3 21.05.2027 -
Tudor Mendel-Idowu Gubbio Ativo 99 / 90 40% 5 18.05.2027 -
Ruslan Apekov Torpedo Moscow Ativo 96 / 101 40% 6 11.05.2027 -
Jon Eceizabarrena Real Sociedad Ativo 106 / 121 40% 2 10.05.2027 -
Ramazan Gadjimuradov Chelyabinsk Ativo 103 / 112 40% 2 08.05.2027 -
Evgeny Voronin Volga Ativo 96 / 98 40% 1 25.04.2027 -
André Miranda Porto Ativo 111 / 97 40% 1 22.04.2027 -
Pablo García Gijón Ativo 93 / 127 40% 4 18.04.2027 -
Andi Vidal Irkutsk Ativo 82 / 90 40% 1 14.04.2027 -
Danil Lipovoy Ufa Ativo 102 / 90 40% 2 13.04.2027 -
Igor Shkolik SKA Khabarovsk Ativo 103 / 107 40% 2 12.04.2027 -
Martim Cunha Porto Ativo 108 / 112 40% 1 10.04.2027 -
Ibrahim Ashour Masr El Makasa Ativo 89 / 103 40% 1 05.04.2027 -
Darko Todorović Fakel Ativo 108 / 122 40% 2 29.03.2027 -
Kirill Danilin Ural Ativo 108 / 106 40% 1 29.03.2027 -
Job Ochieng Real Sociedad Ativo 101 / 84 40% 7 26.03.2027 -
Darío Ramírez Real Sociedad Ativo 81 / 85 40% 1 25.03.2027 -
Kamran Aliev SKA Khabarovsk Ativo 96 / 102 40% 1 24.03.2027 -
Bojan Roganović Torpedo Moscow Ativo 109 / 118 40% 1 17.03.2027 -
Joe Snowdon Swindon Town Ativo 109 / 110 40% 1 16.03.2027 -
Nuri Abdokov Fakel Ativo 94 / 92 40% 1 14.03.2027 -
David Kokoev Yenisey Ativo 102 / 117 40% 1 11.03.2027 -
Stefan Lončar Akron Ativo 110 / 100 40% 1 06.03.2027 -
Daniel Valdelamar Yenisey Ativo 91 / 106 40% 3 05.03.2027 -
Léo Cordeiro Ural Ativo 111 / 106 40% 2 27.02.2027 -
Andrey Nikitin Neftekhimik Ativo 87 / 107 40% 2 25.02.2027 -
Romelu Meunier KV Oostende Ativo 94 / 104 40% 1 24.02.2027 -
Nikita Yershov Kosmos Ativo 82 / 70 40% 1 17.02.2027 -
Alan Tsaraev Arsenal Tula Ativo 106 / 93 40% 1 07.02.2027 -
Alexandr Olenev Nart Ativo 84 / 97 40% 4 26.01.2027 -
Stanislav Biblyk Chaika Ativo 99 / 92 40% 1 18.01.2027 -
Denzel Jubitana Neftchi Ativo 122 / 110 40% 3 31.12.2026 -
Daniil Agureev Amkar Ativo 96 / 78 40% 2 30.12.2026 -
Dato Mchedlidze Tskhinvali Ativo 101 / 115 40% 3 28.12.2026 -
Yeangel Montero Naxxar Lions Ativo 108 / 106 40% 4 27.12.2026 -
James Kirby Marsaxlokk Ativo 95 / 89 40% 2 26.12.2026 -
Nikita Simdyankin KDV Tomsk Ativo 92 / 90 40% 1 25.12.2026 -
Jere Vrcić Birkirkara Ativo 86 / 76 40% 1 23.12.2026 -
Pachu Kapaz Ativo 104 / 87 40% 1 23.12.2026 -
Patrick Schmidt Tarxien Rainbows Ativo 113 / 100 40% 3 22.12.2026 -
Maxim Kutovoy Salyut Ativo 88 / 82 40% 1 17.12.2026 -
Tenton Yenne Baltika Ativo 109 / 110 40% 1 04.12.2026 -
Bruno Gomes Valletta Ativo 93 / 77 40% 3 03.12.2026 -
Sebastian Mailat Botosani Ativo 125 / 113 40% 3 01.12.2026 -
Pavel Popov Volna Ativo 77 / 93 40% 1 29.11.2026 -
Stephen Humphrys Bradford City Ativo 118 / 106 40% 3 28.11.2026 -
Isaac Matondo Koper Ativo 106 / 115 40% 3 28.11.2026 -
Thomas Carrique Andorra Ativo 115 / 108 40% 1 27.11.2026 -
Dean Campbell Northampton Town Ativo 96 / 86 40% 1 25.11.2026 -
Will Swan Bradford City Ativo 92 / 125 40% 3 24.11.2026 -
Jaze Kabia Grimsby Town Ativo 80 / 77 40% 2 23.11.2026 -
Robert Murić Floriana Ativo 107 / 80 40% 4 19.11.2026 -
Jáder Valencia Deportes Tolima Ativo 129 / 136 40% 1 18.11.2026 -
Rashid Magomedov Neftekhimik Ativo 90 / 88 40% 1 17.11.2026 -
Davit Gotsiridze Kolkheti Ativo 84 / 94 40% 2 16.11.2026 -
Lyes Houri Dinamo Tbilisi Ativo 105 / 109 40% 1 12.11.2026 -
Paul Mbong Floriana Ativo 94 / 104 40% 1 08.11.2026 -
Julen Cordero Samtredia Ativo 94 / 84 40% 1 08.11.2026 -
Ilja Gruznov Khimik Ativo 93 / 99 40% 2 07.11.2026 -
Charles Vernam Grimsby Town Ativo 106 / 111 40% 1 07.11.2026 -
Davit Jikia Kolkheti Ativo 96 / 70 40% 1 28.10.2026 -
Elías Peralta Lokomotivi Ativo 98 / 87 40% 2 27.10.2026 -
Yegor Kortsov Dinamo Brest Ativo 104 / 98 40% 1 22.10.2026 -
Miloš Jovičić Zabbar St. Patrick Ativo 87 / 117 40% 1 19.10.2026 -
Damir Céter Hamrun Spartans Ativo 96 / 91 40% 1 18.10.2026 -
Zurab Museliani Dila Ativo 91 / 100 40% 1 16.10.2026 -
Brandon Hanlan Doncaster Rovers Ativo 93 / 98 40% 1 15.10.2026 -
Maleace Asamoah Wigan Athletic Ativo 90 / 120 40% 1 09.10.2026 -
Dylan Cabral Arsenal Ativo 104 / 87 40% 1 08.10.2026 -
Marcos Cuenca Zaragoza Ativo 124 / 113 40% 1 07.10.2026 -
Will Dickson Chesterfield Ativo 84 / 98 40% 1 05.10.2026 -
Josh Benson Rotherham United Ativo 110 / 81 40% 1 05.10.2026 -
Alberto Benítez Villalba Torpedo Kutaisi Ativo 86 / 79 40% 1 03.10.2026 -
Leroy-Jacques Mickels Zira Ativo 97 / 100 40% 1 02.10.2026 -
Kekuta Manneh Samtredia Ativo 81 / 79 40% 3 26.09.2026 -
Daniel Udoh Salford City Ativo 104 / 102 40% 1 26.09.2026 -
Macaulay Langstaff Millwall Ativo 121 / 102 40% 1 25.09.2026 -
Guljigit Borubaev Neman Ativo 107 / 87 40% 1 17.09.2026 -
Tornike Mikautadze Tskhinvali Ativo 100 / 95 40% 2 16.09.2026 -
Shota Shekiladze Dila Ativo 105 / 124 40% 1 15.09.2026 -
Nahuel Roldán Deportivo La Coruña Ativo 107 / 103 40% 1 10.09.2026 -
Daniel Harvie Wycombe Wanderers Ativo 96 / 116 40% 1 08.09.2026 -
Warley Torpedo Kutaisi Ativo 107 / 83 40% 1 05.09.2026 -
Zurab Tsitaishvili Zugdidi Ativo 104 / 92 40% 1 03.09.2026 -
Mateo Stamatov Torpedo Kutaisi Ativo 103 / 91 40% 1 02.09.2026 -
Bence Gergényi Lokomotivi Ativo 105 / 106 40% 1 01.09.2026 -
Revaz Mchedlidze Sapovnela Ativo 60 / 80 58% 1 17.08.2026 -
Tomoki Iwata Birmingham Ativo 134 / 107 40% 1 02.08.2026 -
Davit Kereselidze Dila Ativo 95 / 92 40% 1 01.08.2026 -